Find Kosmos-628

NORAD ID: 7094 Int'l Des: 1974-001 Owner: VMF Country: SU operational
LEOCIRCULARPOLAR

实时位置

正在加载3D地球...

关于 Kosmos-628

正在加载描述...

即将过境

Passes for default location (London). Set your location on the main map for personalized predictions.

高度历史

Loading altitude history...

两行轨道根数

1 07094U 74001A 26135.26180939 .00000052 00000-0 38330-4 0 9995
2 07094 82.9579 206.0587 0035449 232.1024 187.4095 13.75965465626053
Epoch: May 15, 2026 • Age: 18 hours

当前状态

高度 1014.3 km
速度 7.34 km/s
星下点 75.67°N, 3.22°E
类型 other

Most Searched